Location: Laan Hart van Zuid
(52.2563°N, 6.7904°E)
Time: 10:58:09
(UTC+02:00)

ISS - Pass Details

Date: 27 April 2024
Orbit: 411 x 419 km, 51.6° (Epoch: 26 May)

Event Time Altitude Azimuth Distance (km) Brightness Sun altitude
Exits shadow 04:45:24 18° 208° (SSW) 1,125 -2.2 -11.6°
Maximum altitude 04:47:24 33° 153° (SSE) 727 -2.7 -11.4°
Drops below altitude 10° 04:50:29 10° 87° (E) 1,504 -0.1 -11.0°
Sets 04:52:41 0° 78° (ENE) 2,364 1.3 -10.8°
